ARIANE 44LP DEB, 33547

Orbit data source: Space-Track

ARIANE 44LP DEB, 33547 is space debris in HEO originally from a launch on Sun, 11 Dec 1988 UTC launched from the French Guiana (FRGUI). Debris objects in space refer to the collection of defunct objects orbiting the Earth. Examples of debris include non-operational satellites, rocket bodies, and fragments generated from explosions, collisions, or faulty payload assembly.

Loading next visibility...
Identifier
33547, 1988-109W
Orbit
HEO
Country
Flag of FRFR
Related business
Manufacturer
Unknown
Mission
Spacecraft
Bus & Motor
Unknown
Mass
Unknown
Launch date (UTC)
1988-12-11 (37 years ago)
Launch vehicle
Unknown
Launch site
French Guiana (FRGUI)
Object type
Payload
Rocket body
Debris
Shape & HBR
Unknown shape, 0.2 m
Radar Cross Section
Medium (>0.1 m² and <1 m²)

Expand to show TLE details & history
Last TLE update: 2 days ago

TLE from 2 days ago
0 ARIANE 44LP DEB
1 33547U 88109W   25339.40215768  .00003953  00000-0  28360-1 0  9993
2 33547   7.0480 296.6089 7073154 299.3357   8.7440  2.40006069219730
Epoch: 2025-12-05T09:39Z
TLE epoch observation values (Epoch: 2025-12-05T09:39:06.423Z)
Latitude
-0.00053°
Longitude
77.3223°
Altitude
2,332.061 km
Speed
8.637 km/s
True Right ascension
19h 46m 10s
True Declination
0° 00' 02"
Sunlit
Object was in daylight at epoch
Visualization orbit readout
Latitude
Unknown
Longitude
Unknown
Altitude
Unknown
Speed
Unknown
Apparent Right ascension
Unknown
Apparent Declination
Unknown
Sunlit
N/A
Visualization observer readout
Local Sidereal Time
22:41:56
Azimuth
Unknown
Elevation
Unknown
Doppler factor
Unknown
Orbital elements
Apogee altitude
33,862.332 km
Perigee altitude
520.275 km
Semi-major axis
23,569.441 km
Eccentricity
0.70732
Inclination
7.048°
RAAN
296.6089°
Arg. of periapsis
299.3357°
True anomaly
60.94647°
Mean anomaly
8.744°
Eccentric anomaly
27.38425°
Mean motion
0.59982 °/min
Orbital period
600.18 mins
BSTAR
0.02836
Loading maneuver chart data...
Computing Atmospheric mass density...
Loading historical data...
Loading historical data...
Loading historical data...
Loading historical data...
Loading historical data...
Loading historical data...
Loading historical data...

Documentation

Showing up to 5 results
|